Wind_Speed
39 39 39 39 39 39 38 38 38 38 38 38 38 37 37 38 38 38 38 37 38 39 39 39 39 39 39 39 39 39 39 40 40 40 40 41 41 41
41 40 40 40 40 39 39 39 39 39 39 39 38 39 39 38 39 39 39 39 39 39 39 39 39 40 40 40 40 40 41 41 41 41 42 43 43 43
41 41 40 40 40 41 41 40 41 41 41 40 41 41 41 40 41 41 41 41 41 41 40 40 40 40 41 41 42 42 42 42 43 43 44 44 45 45
42 42 42 41 41 42 42 42 42 42 43 42 42 43 43 43 43 43 43 43 43 42 42 42 42 42 43 43 43 44 44 44 44 44 45 46 47 47
44 44 43 43 43 43 43 43 43 44 44 45 44 45 45 46 46 45 45 44 43 44 44 44 44 44 45 45 45 45 46 46 46 46 46 47 48 49
45 45 44 44 44 44 44 44 45 45 45 45 46 46 46 47 47 46 46 45 45 46 46 46 46 47 47 47 47 48 48 48 48 48 49 49 50 51
46 46 46 45 45 45 45 45 45 46 46 47 47 47 47 47 47 47 48 47 47 47 48 48 48 48 49 49 50 50 50 50 49 50 50 51 51 52
47 47 47 46 46 47 47 47 47 47 47 47 47 47 46 47 48 48 48 48 48 48 49 49 50 49 49 49 50 50 50 50 51 51 51 52 53 54
49 48 48 48 48 48 48 47 47 47 48 48 47 47 47 47 48 48 49 49 48 48 49 49 49 49 49 49 49 50 50 50 51 52 52 53 53 54
50 49 49 48 48 48 47 47 47 47 48 47 47 47 48 48 48 49 49 49 50 50 49 49 48 48 48 49 49 49 50 50 51 52 52 53 54 55
50 50 49 49 48 48 48 48 47 47 47 47 47 47 47 47 47 47 48 48 48 48 48 48 47 47 48 48 49 50 51 51 52 53 53 54 54 54
49 49 48 48 48 48 48 47 47 46 46 46 47 47 47 47 47 47 47 47 47 47 47 48 48 48 48 48 49 50 51 52 53 54 54 54 55 54
49 49 48 48 48 47 47 47 47 47 47 48 48 48 48 48 48 48 48 48 48 48 48 48 48 49 50 50 50 50 51 52 53 54 54 55 55 54
50 49 49 49 49 48 48 48 49 49 49 49 49 49 49 48 48 49 48 48 49 48 49 49 50 50 51 51 51 51 51 52 52 53 53 54 53 53
49 48 48 49 49 49 49 50 50 50 50 49 49 49 50 50 50 50 49 49 49 49 50 50 51 52 52 52 51 51 51 52 52 52 52 52 52 51
48 48 48 48 49 49 49 49 50 49 49 49 50 50 50 50 50 50 50 50 50 50 51 52 52 52 52 52 52 52 52 52 52 52 52 51 51 51
47 47 47 47 47 47 47 47 47 47 48 49 50 50 50 50 51 51 51 51 51 52 52 53 53 53 52 52 52 51 51 51 51 51 51 51 51 51
45 46 46 46 46 46 46 46 46 47 48 49 50 50 51 51 51 51 52 52 52 52 52 52 52 52 52 51 51 51 51 50 50 50 51 50 49 50
45 45 45 45 45 45 46 46 46 46 47 48 49 49 50 50 50 50 51 51 50 50 50 51 51 51 50 50 49 50 49 49 49 49 49 48 47 47
45 45 45 45 45 45 45 45 45 45 46 46 47 47 48 48 48 49 50 50 50 50 50 50 50 50 50 49 48 48 49 49 48 48 47 46 45 45
44 44 44 44 44 44 44 44 44 44 45 45 45 46 47 47 48 48 49 49 50 50 50 49 49 49 49 49 48 48 49 49 49 47 46 45 44 43
43 43 43 43 43 43 44 44 44 44 45 45 45 45 46 47 47 48 48 49 49 49 49 49 49 49 49 48 48 47 47 48 48 47 45 44 43 42
42 41 41 42 42 42 43 44 44 44 45 45 46 46 46 47 47 47 47 47 47 47 47 47 47 47 48 48 47 47 46 46 45 45 44 43 43 43
Wind_Direction
258 259 259 260 261 261 262 263 264 265 265 265 268 270 271 272 274 275 275 277 278 278 279 279 279 280 281 281 282 283 283 283 283 283 282 283 285 286
258 259 260 261 261 261 262 262 263 264 264 264 265 267 270 271 273 274 275 276 278 279 278 278 278 280 281 281 283 282 283 283 283 283 283 283 284 285
258 259 260 261 262 261 262 262 262 263 264 265 265 267 268 269 271 274 275 276 277 278 277 278 279 280 281 281 281 282 282 282 282 283 283 283 283 284
258 258 260 260 262 262 263 263 263 263 264 264 265 265 267 269 271 273 274 275 276 277 277 277 278 280 281 282 282 282 282 282 282 282 282 282 282 283
257 258 259 260 261 262 262 263 264 264 264 265 266 267 268 269 271 272 274 275 275 276 276 276 277 279 280 282 283 282 282 282 282 282 282 283 283 283
258 258 259 260 261 262 262 263 264 265 265 267 268 268 268 269 271 272 273 274 275 276 276 276 277 278 279 280 281 282 282 283 282 282 282 283 284 284
257 258 258 260 261 262 262 263 264 265 267 268 268 269 269 269 271 272 273 274 275 276 276 276 278 279 279 280 281 282 282 283 282 283 284 284 285 285
258 258 259 260 261 263 263 264 266 267 268 268 268 269 269 270 271 272 272 273 275 275 276 277 279 280 280 281 282 282 282 283 283 284 285 286 286 287
258 259 260 261 262 264 264 265 266 267 267 268 269 270 270 270 271 272 273 274 275 276 277 278 279 280 280 281 282 282 282 283 284 285 286 287 288 289
258 260 260 261 263 264 264 264 265 267 268 269 270 270 270 271 272 272 274 275 276 277 278 278 279 280 281 282 281 282 283 284 286 286 287 288 289 290
258 259 260 261 263 263 263 264 265 267 268 268 269 270 270 271 271 273 274 275 276 277 278 279 278 279 281 281 283 284 285 285 286 286 287 288 289 289
257 259 260 261 262 262 262 263 265 266 267 268 269 270 271 272 273 274 276 276 277 277 278 278 278 279 280 282 284 285 285 285 286 286 287 288 289 290
257 258 260 261 260 261 261 262 264 266 267 268 269 270 271 273 274 275 276 277 277 278 278 278 278 280 282 283 284 286 287 287 287 287 288 289 289 289
256 258 259 260 261 261 262 263 264 266 267 268 269 270 271 273 274 275 276 276 277 279 279 279 279 281 282 283 284 285 286 287 287 288 289 289 289 289
256 257 258 259 261 261 263 264 265 266 267 268 269 270 272 273 274 274 276 277 278 278 279 280 281 282 284 285 285 286 286 286 287 288 289 289 288 288
257 258 258 259 260 262 263 264 266 267 269 270 271 271 272 273 275 275 276 277 277 278 279 280 281 283 284 285 286 287 287 288 288 288 288 288 287 287
257 257 258 259 261 262 263 265 266 268 270 271 272 272 272 273 274 274 275 276 277 278 279 280 282 283 284 285 287 287 288 288 288 288 288 287 287 287
256 257 258 260 261 263 264 266 268 269 271 272 272 272 273 274 274 274 275 276 277 278 279 280 282 282 284 285 287 287 287 288 288 288 288 288 287 287
255 257 258 260 261 263 265 266 268 270 272 273 273 273 273 274 274 274 275 276 277 278 279 280 281 282 283 284 286 287 288 288 289 289 289 288 288 288
255 256 258 260 261 263 264 266 268 270 271 273 274 274 275 275 276 276 276 276 277 278 279 280 281 282 283 284 285 286 287 288 288 288 288 288 288 287
255 257 258 260 262 263 265 267 269 270 272 273 275 276 276 277 277 277 278 277 277 278 279 280 281 281 282 284 285 285 286 288 288 288 287 286 285 286
255 257 259 261 262 264 265 267 269 271 272 274 276 277 278 279 279 279 279 278 278 278 279 279 280 281 282 283 285 286 286 287 287 287 287 286 285 285
256 258 259 261 263 264 266 268 270 272 274 275 277 278 279 280 280 281 281 280 280 280 279 279 280 281 282 284 284 285 285 285 286 286 287 286 286 286
Height
5761 5762 5763 5764 5765 5766 5767 5768 5770 5771 5772 5773 5773 5773 5773 5773 5773 5772 5772 5771 5770 5769 5768 5767 5766 5765 5764 5762 5760 5759 5757 5755 5754 5752 5751 5750 5748 5746
5751 5753 5754 5755 5756 5756 5757 5758 5760 5761 5762 5763 5764 5764 5763 5763 5763 5763 5762 5762 5760 5759 5758 5757 5756 5755 5754 5752 5750 5749 5747 5745 5743 5742 5741 5739 5737 5735
5741 5743 5744 5745 5746 5746 5747 5748 5749 5750 5752 5753 5753 5754 5753 5754 5754 5753 5752 5751 5750 5749 5748 5747 5746 5745 5743 5742 5740 5738 5736 5734 5733 5732 5730 5728 5726 5725
5731 5732 5733 5734 5735 5736 5737 5738 5739 5740 5741 5742 5743 5743 5743 5743 5743 5742 5742 5741 5740 5739 5737 5736 5735 5734 5733 5731 5729 5727 5725 5724 5722 5721 5719 5717 5715 5712
5720 5721 5723 5724 5725 5726 5727 5728 5728 5729 5730 5731 5732 5732 5732 5732 5732 5731 5730 5729 5728 5727 5726 5725 5724 5723 5721 5719 5718 5716 5714 5712 5711 5709 5707 5705 5702 5700
5708 5710 5711 5713 5714 5715 5716 5717 5717 5718 5719 5719 5720 5720 5720 5720 5720 5719 5719 5718 5717 5716 5715 5714 5712 5711 5709 5708 5706 5704 5702 5700 5698 5697 5694 5692 5690 5687
5697 5698 5700 5701 5702 5703 5705 5705 5706 5707 5707 5708 5708 5708 5708 5708 5708 5707 5706 5706 5705 5704 5703 5701 5700 5698 5696 5694 5693 5691 5689 5687 5685 5683 5681 5679 5676 5673
5685 5686 5688 5689 5691 5692 5693 5693 5694 5695 5695 5696 5696 5696 5696 5696 5695 5694 5694 5693 5693 5692 5690 5688 5687 5685 5683 5681 5679 5677 5675 5673 5672 5669 5667 5664 5661 5658
5672 5674 5676 5677 5678 5679 5680 5681 5682 5682 5683 5684 5684 5684 5683 5683 5682 5682 5681 5680 5680 5679 5677 5675 5673 5671 5669 5667 5665 5663 5662 5660 5658 5655 5653 5649 5646 5643
5659 5661 5663 5664 5666 5667 5668 5669 5670 5670 5671 5671 5671 5671 5670 5669 5669 5669 5668 5667 5666 5665 5663 5662 5660 5658 5656 5654 5652 5650 5648 5646 5643 5641 5638 5634 5631 5628
5646 5648 5650 5651 5653 5654 5655 5657 5658 5658 5658 5658 5658 5658 5657 5657 5656 5655 5655 5654 5653 5652 5649 5648 5647 5645 5643 5641 5638 5636 5633 5631 5629 5626 5622 5619 5616 5612
5633 5635 5637 5639 5640 5641 5642 5644 5645 5645 5645 5645 5645 5645 5645 5644 5643 5642 5642 5640 5639 5639 5637 5635 5633 5632 5631 5629 5626 5623 5619 5617 5614 5611 5607 5604 5600 5596
5621 5623 5624 5626 5627 5628 5629 5631 5632 5632 5632 5633 5633 5633 5632 5632 5631 5630 5628 5627 5626 5625 5624 5622 5620 5618 5617 5616 5614 5609 5606 5603 5599 5596 5592 5588 5584 5580
5608 5610 5612 5613 5614 5615 5616 5618 5618 5619 5619 5620 5620 5619 5619 5619 5618 5617 5615 5614 5613 5612 5610 5608 5607 5605 5602 5601 5599 5596 5592 5588 5585 5581 5577 5573 5569 5565
5595 5596 5598 5600 5601 5602 5603 5604 5605 5605 5605 5606 5606 5606 5605 5605 5604 5603 5602 5600 5599 5597 5596 5594 5592 5590 5587 5585 5584 5581 5578 5574 5570 5566 5562 5558 5555 5551
5581 5583 5585 5586 5587 5589 5590 5590 5591 5592 5592 5592 5592 5592 5591 5591 5590 5589 5588 5586 5585 5584 5581 5579 5577 5575 5573 5570 5567 5565 5562 5559 5555 5551 5548 5544 5540 5536
5568 5570 5572 5573 5575 5576 5577 5577 5578 5578 5578 5578 5578 5578 5577 5576 5575 5574 5573 5572 5571 5570 5567 5565 5562 5559 5557 5555 5553 5550 5547 5543 5540 5536 5533 5530 5526 5522
5555 5557 5559 5561 5562 5563 5564 5564 5564 5564 5564 5564 5563 5563 5562 5562 5561 5559 5558 5557 5556 5554 5553 5550 5548 5545 5543 5541 5538 5535 5532 5529 5525 5522 5518 5515 5513 5509
5542 5544 5546 5548 5549 5550 5551 5551 5551 5551 5550 5550 5549 5548 5547 5547 5545 5544 5543 5542 5541 5540 5538 5535 5533 5530 5529 5528 5525 5520 5518 5515 5511 5508 5504 5501 5499 5495
5530 5532 5534 5535 5536 5537 5537 5538 5538 5538 5537 5536 5535 5534 5533 5532 5531 5530 5528 5527 5526 5525 5523 5520 5518 5516 5514 5513 5511 5508 5503 5500 5497 5494 5491 5488 5485 5482
5517 5519 5521 5522 5523 5524 5525 5525 5525 5525 5524 5523 5522 5520 5519 5518 5517 5515 5514 5512 5511 5509 5508 5506 5504 5502 5499 5498 5497 5495 5490 5486 5483 5480 5478 5475 5472 5470
5505 5507 5508 5509 5510 5511 5512 5512 5512 5512 5511 5510 5509 5507 5505 5504 5502 5501 5499 5497 5496 5495 5493 5492 5489 5487 5485 5484 5483 5480 5477 5473 5469 5466 5463 5461 5458 5457
5493 5495 5496 5497 5497 5498 5498 5499 5498 5498 5497 5496 5495 5494 5492 5490 5488 5487 5485 5483 5481 5480 5478 5477 5475 5473 5471 5470 5468 5466 5463 5460 5457 5455 5452 5448 5445 5443